Location: Paderno d�Adda
(45.6667°N, 9.4333°E)
Time: 22:57:44
(UTC+00:00)

Cosmos 1125 Rocket - Pass Details

Date: 21 January 2021
Orbit: 757 x 780 km, 74.0° (Epoch: 08 March)

Event Time Altitude Azimuth Distance (km) Brightness Sun altitude
Exits shadow 05:16:49 - 344° (NNW) 3,127 6.4 -16.9°
Reaches altitude 10° 05:18:59 10° 352° (N) 2,335 5.8 -16.5°
Maximum altitude 05:23:57 39° 61° (ENE) 1,159 4.8 -15.7°
Drops below altitude 10° 05:28:54 10° 130° (SE) 2,330 7.0 -14.8°
Sets 05:31:26 0° 138° (SE) 3,254 7.7 -14.4°
